LIRELIRN

Guest
Details From LIRE - Pratica Di Mare
To LIRN - Naples Capodichino
Flight Number -
Tags Generated
Created
Modified
Stats Distance 96 nm / 177 km
Max Altitude 0 ft / 0 m
Waypoints 2
Social Downloads 1
Likes 0
Share VATSIM

Download

Looking for another format? Having issues loading an existing format? Contact us
Advertisement - Login to hide

Notes

Generated

Route

LIRE LIRN

ID Type Via Altitude Latitude Longitude Leg Dist Tot Dist Heading (true) Name
O LIRE APT - 0 ft / 0 m 41.66242˚ 12.43448˚ - 0 nm - -
O LIRN APT - 0 ft / 0 m 40.87979˚ 14.27754˚ 95 nm 95 nm 119° / 120° -

Altitude Profile

Advertisement - Login to hide

LIRE

Details ICAO LIRE
Name Pratica Di Mare
Region Italy
Timezone Europe/Rome (UTC+2.0)
Stats Elevation 39 ft / 12 m (AMSL)
Location 41.654524° 12.445184°
Runways 2
Magnetic Variation 3.068° E

METAR

LIRE 210655Z 17001KT 9999 FEW020 BKN070 20/17 Q1012 RMK BKN VIS MIN 9999 WIND THR13 19001KT WIND THR31 31001KT BLU

Decode

TAF

Not found

Departure Runways

ID Width Length Bearing (true) Bearing (mag) Surface Threshold Offset Overrun Length
13 148 ft / 45 m 8,340 ft / 2,542 m 130.05° 126.98° Asphalt 500 ft / 152 m 0 ft / 0 m
13L 98 ft / 30 m 8,135 ft / 2,479 m 130.02° 126.95° Asphalt 430 ft / 131 m 0 ft / 0 m
31 148 ft / 45 m 8,340 ft / 2,542 m 310.07° 307.00° Asphalt 350 ft / 107 m 700 ft / 213 m
31R 98 ft / 30 m 8,135 ft / 2,479 m 310.03° 306.96° Asphalt 430 ft / 131 m 0 ft / 0 m

LIRN

Details ICAO LIRN (NAP)
Name Naples Capodichino
Region Italy
Timezone Europe/Rome (UTC+2.0)
Stats Elevation 294 ft / 90 m (AMSL)
Location 40.886032° 14.290783°
Runways 1
Magnetic Variation 3.352° E

METAR

LIRN 210720Z 30003KT 260V010 9999 BKN050 23/13 Q1013 NOSIG

Decode

TAF

TAF LIRN 210500Z 2106/2206 VRB05KT 9999 SCT030 TEMPO 2109/2115 4000 SHRA BECMG 2110/2112 23010KT BECMG 2118/2120 VRB05KT

Decode

Destination Runways

ID Width Length Bearing (true) Bearing (mag) Surface Threshold Offset Overrun Length
06 148 ft / 45 m 8,612 ft / 2,625 m 58.03° 54.68° Asphalt 1,309 ft / 399 m 0 ft / 0 m
24 148 ft / 45 m 8,612 ft / 2,625 m 238.05° 234.70° Asphalt 624 ft / 190 m 0 ft / 0 m

Approach Navaids

Runway Type Ident Frequency Range Bearing (true) Bearing (mag) Slope Elevation
06 Localiser NPC 110.15 MHz 18 nm / 33 km 52.74° 49.38° - 294 ft / 90 m (AMSL)
06 Glidescope NPC 110.15 MHz 10 nm / 19 km 58.04° 54.69° 3.50° 294 ft / 90 m (AMSL)
06 DME NPC 110.15 MHz 25 nm / 46 km - - - 294 ft / 90 m (AMSL)
24 Localiser INPL 109.50 MHz 18 nm / 33 km 238.03° 234.67° - 288 ft / 88 m (AMSL)
24 Glidescope INPL 109.50 MHz 10 nm / 19 km 238.04° 234.69° 3.33° 250 ft / 76 m (AMSL)
24 DME INPL 109.50 MHz 25 nm / 46 km - - - 250 ft / 76 m (AMSL)